Weather History for Harrison, AR

Change the Weather History Date:

Thursday, October 30, 2014

  Actual Average Record
Temperature  
Mean Temperature 55 °F 55 °F  
Max Temperature 70 °F 66 °F 87 °F (1950)
Min Temperature 39 °F 44 °F 17 °F (1925)
Degree Days  
Heating Degree Days 10 11  
Month to date heating degree days 139 210  
Since 1 July heating degree days 173 253  
Cooling Degree Days 0 1  
Month to date cooling degree days 58 36  
Year to date cooling degree days 1354 1415  
Growing Degree Days 4 (Base 50)    
Moisture  
Dew Point 41 °F    
Average Humidity 65    
Maximum Humidity 93    
Minimum Humidity 36    
Precipitation  
Precipitation T in 0.12 in 3.47 in (1967)
Month to date precipitation 5.04 3.43  
Year to date precipitation 36.87 36.59  
Snow  
Snow 0.00 in 0.00 in T in (1993)
Month to date snowfall 0.0 0.0  
Since 1 July snowfall 0.0 0.0  
Since 1 September snowfall 0.0 0.0  
Snow Depth 0.00 in    
Sea Level Pressure  
Sea Level Pressure 30.09 in    
Wind  
Wind Speed 7 mph (SW)    
Max Wind Speed 17 mph    
Max Gust Speed 25 mph    
Visibility 10 miles    
Events Rain    
T = Trace of Precipitation, MM = Missing Value Source: NWS Daily Summary

Daily Weather History Graph

Daily Weather History Graph

Search for Another Location

Airport:

Trip Planner

Search our weather history database for the weather conditions in past years. The results will help you decide how hot, cold, wet, or windy it might be!

Date:

Astronomy

Oct. 30, 2014 Rise Set
Actual Time 7:33 AM CDT 6:18 PM CDT
Civil Twilight 7:07 AM CDT 6:44 PM CDT
Nautical Twilight 6:36 AM CDT 7:15 PM CDT
Astronomical Twilight 6:06 AM CDT 7:45 PM CDT
Moon 1:37 PM CDT (10/30) No Moon Set
Length of Visible Light 11h 37m
Length of Day
10h 44m
Waxing Crescent, 45% of the Moon is Illuminated
Oct 30
Waxing Crescent
Oct 30
First Quarter
Nov 6
Full
Nov 14
Last Quarter
Nov 22
New

Hourly Weather History & Observations

Time (CDT) Temp. Windchill Dew Point Humidity Pressure Visibility Wind Dir Wind Speed Gust Speed Precip Events Conditions
12:53 AM 45.0 °F 43.5 °F 39.0 °F 80% 30.15 in 10.0 mi SE 3.5 mph - N/A   Clear
1:53 AM 43.0 °F - 39.9 °F 89% 30.15 in 10.0 mi Calm Calm - N/A   Clear
2:53 AM 43.0 °F - 39.0 °F 86% 30.14 in 10.0 mi Calm Calm - N/A   Clear
3:53 AM 41.0 °F 39.0 °F 39.0 °F 93% 30.14 in 10.0 mi SE 3.5 mph - N/A   Clear
4:53 AM 39.9 °F 36.7 °F 37.9 °F 93% 30.14 in 10.0 mi SE 4.6 mph - N/A   Clear
5:53 AM 39.9 °F 35.8 °F 37.9 °F 93% 30.13 in 10.0 mi SE 5.8 mph - N/A   Clear
6:53 AM 39.9 °F 37.8 °F 37.9 °F 93% 30.13 in 10.0 mi ESE 3.5 mph - N/A   Clear
7:53 AM 41.0 °F 38.0 °F 39.0 °F 93% 30.14 in 10.0 mi East 4.6 mph - N/A   Clear
8:53 AM 45.0 °F 42.6 °F 41.0 °F 86% 30.13 in 10.0 mi SE 4.6 mph - N/A   Clear
9:53 AM 53.1 °F - 44.1 °F 71% 30.12 in 10.0 mi SE 4.6 mph - N/A   Clear
10:53 AM 59.0 °F - 45.0 °F 60% 30.10 in 10.0 mi ESE 6.9 mph - N/A   Clear
11:53 AM 64.0 °F - 46.0 °F 52% 30.09 in 10.0 mi ESE 6.9 mph - 0.00 in Rain Light Rain
12:53 PM 63.0 °F - 44.1 °F 50% 30.08 in 10.0 mi SW 8.1 mph - 0.00 in Rain Light Rain
1:53 PM 66.9 °F - 39.0 °F 36% 30.02 in 10.0 mi WSW 6.9 mph - 0.00 in   Overcast
2:53 PM 70.0 °F - 41.0 °F 35% 29.99 in 10.0 mi West 10.4 mph 21.9 mph N/A   Clear
3:53 PM 70.0 °F - 44.1 °F 39% 30.00 in 10.0 mi West 12.7 mph 18.4 mph N/A   Partly Cloudy
4:53 PM 68.0 °F - 45.0 °F 43% 30.01 in 10.0 mi WNW 12.7 mph 20.7 mph N/A   Clear
5:53 PM 64.9 °F - 41.0 °F 42% 30.02 in 10.0 mi WNW 11.5 mph 19.6 mph N/A   Clear
6:53 PM 60.1 °F - 42.1 °F 51% 30.04 in 10.0 mi WNW 4.6 mph - N/A   Clear
7:53 PM 57.9 °F - 42.1 °F 56% 30.05 in 10.0 mi WNW 6.9 mph - N/A   Clear
8:53 PM 57.0 °F - 41.0 °F 55% 30.06 in 10.0 mi WNW 6.9 mph - N/A   Clear
9:53 PM 55.9 °F - 39.9 °F 55% 30.07 in 10.0 mi WNW 8.1 mph - N/A   Clear
10:53 PM 54.0 °F - 39.9 °F 59% 30.08 in 10.0 mi WNW 8.1 mph - N/A   Clear
11:53 PM 53.1 °F - 39.9 °F 61% 30.08 in 10.0 mi NW 8.1 mph - N/A   Clear